| time (UTC) | temp C | wind direction | speed KPH | gust KPH | rain 1hr cm | rain 24hr cm | rain mn cm | humidity % | barometer mb |
| 20260906223852 | 28 | 293 | 0.0 | 3.2 | 0.00 | 0.00 | 0.00 | 38 | 1029.1 |
| 20260906223318 | 28 | 293 | 1.6 | 3.2 | 0.00 | 0.00 | 0.00 | 37 | 1029.1 |
| 20260906222816 | 28 | 294 | 0.0 | 3.2 | 0.00 | 0.00 | 0.00 | 37 | 1029.1 |
| 20260906222318 | 28 | 294 | 0.0 | 4.8 | 0.00 | 0.00 | 0.00 | 36 | 1029.2 |
| 20260906221830 | 29 | 294 | 1.6 | 4.8 | 0.00 | 0.00 | 0.00 | 36 | 1029.2 |
| 20260906221332 | 29 | 293 | 0.0 | 1.6 | 0.00 | 0.00 | 0.00 | 35 | 1029.2 |
| 20260906220828 | 29 | 293 | 0.0 | 0.0 | 0.00 | 0.00 | 0.00 | 36 | 1029.3 |
| 20260906220329 | 30 | 293 | 0.0 | 0.0 | 0.00 | 0.00 | 0.00 | 35 | 1029.3 |
| 20260906215823 | 30 | 293 | 0.0 | 4.8 | 0.00 | 0.00 | 0.00 | 35 | 1029.4 |
| 20260906215331 | 30 | 294 | 0.0 | 6.4 | 0.00 | 0.00 | 0.00 | 34 | 1029.5 |
| 20260906214829 | 30 | 290 | 3.2 | 6.4 | 0.00 | 0.00 | 0.00 | 34 | 1029.3 |
| 20260906214321 | 30 | 323 | 3.2 | 8.0 | 0.00 | 0.00 | 0.00 | 34 | 1029.5 |
| 20260906213837 | 30 | 327 | 3.2 | 8.0 | 0.00 | 0.00 | 0.00 | 35 | 1029.5 |
| 20260906213333 | 30 | 312 | 1.6 | 4.8 | 0.00 | 0.00 | 0.00 | 36 | 1029.6 |
| 20260906212829 | 29 | 311 | 1.6 | 4.8 | 0.00 | 0.00 | 0.00 | 35 | 1029.6 |
| 20260906212330 | 29 | 323 | 1.6 | 4.8 | 0.00 | 0.00 | 0.00 | 36 | 1029.7 |
| 20260906211826 | 28 | 323 | 1.6 | 6.4 | 0.00 | 0.00 | 0.00 | 37 | 1029.8 |
| 20260906211328 | 28 | 311 | 3.2 | 6.4 | 0.00 | 0.00 | 0.00 | 37 | 1029.8 |
| 20260906210844 | 28 | 131 | 0.0 | 3.2 | 0.00 | 0.00 | 0.00 | 39 | 1030.0 |
| 20260906210323 | 28 | 131 | 0.0 | 1.6 | 0.00 | 0.00 | 0.00 | 38 | 1030.1 |
| 20260906205817 | 28 | 131 | 0.0 | 0.0 | 0.00 | 0.00 | 0.00 | 38 | 1030.3 |
| 20260906205350 | 28 | 131 | 0.0 | 0.0 | 0.00 | 0.00 | 0.00 | 36 | 1030.3 |
| 20260906204826 | 28 | 131 | 0.0 | 0.0 | 0.00 | 0.00 | 0.00 | 37 | 1030.3 |
| 20260906204319 | 28 | 131 | 0.0 | 0.0 | 0.00 | 0.00 | 0.00 | 38 | 1030.4 |
| 20260906203816 | 28 | 131 | 0.0 | 0.0 | 0.00 | 0.00 | 0.00 | 38 | 1030.4 |
| 20260906203333 | 28 | 131 | 0.0 | 3.2 | 0.00 | 0.00 | 0.00 | 38 | 1030.4 |
| 20260906202830 | 28 | 131 | 0.0 | 3.2 | 0.00 | 0.00 | 0.00 | 38 | 1030.4 |
| 20260906202332 | 28 | 131 | 0.0 | 6.4 | 0.00 | 0.00 | 0.00 | 37 | 1030.5 |
| 20260906201849 | 28 | 131 | 0.0 | 3.2 | 0.00 | 0.00 | 0.00 | 37 | 1030.6 |
| 20260906201331 | 28 | 131 | 0.0 | 3.2 | 0.00 | 0.00 | 0.00 | 37 | 1030.6 |
| 20260906200822 | 28 | 132 | 0.0 | 3.2 | 0.00 | 0.00 | 0.00 | 37 | 1030.6 |
| 20260906200323 | 28 | 132 | 0.0 | 6.4 | 0.00 | 0.00 | 0.00 | 35 | 1030.5 |
| 20260906195831 | 29 | 131 | 1.6 | 11.3 | 0.00 | 0.00 | 0.00 | 37 | 1030.5 |
| 20260906195322 | 29 | 128 | 6.4 | 11.3 | 0.00 | 0.00 | 0.00 | 36 | 1030.6 |
| 20260906194826 | 29 | 125 | 1.6 | 8.0 | 0.00 | 0.00 | 0.00 | 37 | 1030.6 |
| 20260906194317 | 29 | 26 | 1.6 | 12.9 | 0.00 | 0.00 | 0.00 | 36 | 1030.7 |
| 20260906193815 | 28 | 325 | 6.4 | 12.9 | 0.00 | 0.00 | 0.00 | 38 | 1030.7 |
| 20260906193323 | 28 | 119 | 1.6 | 9.7 | 0.00 | 0.00 | 0.00 | 40 | 1030.7 |
| 20260906192821 | 28 | 168 | 3.2 | 11.3 | 0.00 | 0.00 | 0.00 | 40 | 1030.8 |
| 20260906192325 | 28 | 123 | 3.2 | 11.3 | 0.00 | 0.00 | 0.00 | 42 | 1031.0 |
| 20260906191839 | 28 | 128 | 3.2 | 11.3 | 0.00 | 0.00 | 0.00 | 41 | 1031.1 |
| 20260906191319 | 28 | 136 | 3.2 | 8.0 | 0.00 | 0.00 | 0.00 | 41 | 1031.3 |
| 20260906190836 | 28 | 348 | 0.0 | 9.7 | 0.00 | 0.00 | 0.00 | 42 | 1031.4 |
| 20260906190317 | 28 | 360 | 3.2 | 11.3 | 0.00 | 0.00 | 0.00 | 41 | 1031.4 |
| 20260906185852 | 28 | 129 | 1.6 | 11.3 | 0.00 | 0.00 | 0.00 | 41 | 1031.5 |
| 20260906185340 | 27 | 174 | 1.6 | 8.0 | 0.00 | 0.00 | 0.00 | 38 | 1031.6 |
| 20260906184836 | 28 | 125 | 3.2 | 11.3 | 0.00 | 0.00 | 0.00 | 38 | 1031.8 |
| 20260906184327 | 28 | 123 | 3.2 | 11.3 | 0.00 | 0.00 | 0.00 | 37 | 1031.7 |
| 20260906183824 | 27 | 109 | 1.6 | 4.8 | 0.00 | 0.00 | 0.00 | 37 | 1031.9 |
| 20260906183317 | 27 | 105 | 0.0 | 8.0 | 0.00 | 0.00 | 0.00 | 38 | 1031.9 |
| 20260906182815 | 27 | 69 | 1.6 | 8.0 | 0.00 | 0.00 | 0.00 | 37 | 1032.0 |
| 20260906182316 | 27 | 131 | 1.6 | 6.4 | 0.00 | 0.00 | 0.00 | 38 | 1032.1 |
| 20260906181854 | 27 | 133 | 1.6 | 6.4 | 0.00 | 0.00 | 0.00 | 38 | 1032.2 |
| 20260906181353 | 27 | 134 | 3.2 | 6.4 | 0.00 | 0.00 | 0.00 | 38 | 1032.4 |
| 20260906180846 | 27 | 150 | 3.2 | 8.0 | 0.00 | 0.00 | 0.00 | 37 | 1032.5 |
| 20260906180324 | 27 | 173 | 1.6 | 8.0 | 0.00 | 0.00 | 0.00 | 36 | 1032.5 |
| 20260906175821 | 27 | 123 | 1.6 | 8.0 | 0.00 | 0.00 | 0.00 | 39 | 1032.6 |
| 20260906175313 | 27 | 115 | 1.6 | 6.4 | 0.00 | 0.00 | 0.00 | 37 | 1032.6 |
| 20260906174829 | 27 | 94 | 3.2 | 6.4 | 0.00 | 0.00 | 0.00 | 37 | 1032.7 |
| 20260906174325 | 27 | 121 | 1.6 | 11.3 | 0.00 | 0.00 | 0.00 | 38 | 1032.9 |
| 20260906173840 | 26 | 118 | 0.0 | 11.3 | 0.00 | 0.00 | 0.00 | 38 | 1033.0 |
| 20260906173352 | 26 | 57 | 1.6 | 8.0 | 0.00 | 0.00 | 0.00 | 41 | 1033.0 |
| 20260906172827 | 26 | 178 | 1.6 | 8.0 | 0.00 | 0.00 | 0.00 | 39 | 1033.1 |
| 20260906172350 | 26 | 177 | 1.6 | 8.0 | 0.00 | 0.00 | 0.00 | 41 | 1033.1 |
| 20260906171826 | 26 | 165 | 1.6 | 8.0 | 0.00 | 0.00 | 0.00 | 42 | 1033.2 |
| 20260906171329 | 26 | 121 | 0.0 | 3.2 | 0.00 | 0.00 | 0.00 | 44 | 1033.2 |
| 20260906170826 | 26 | 126 | 1.6 | 4.8 | 0.00 | 0.00 | 0.00 | 44 | 1033.3 |
| 20260906170329 | 26 | 127 | 3.2 | 6.4 | 0.00 | 0.00 | 0.00 | 46 | 1033.4 |
| 20260906165826 | 25 | 138 | 1.6 | 6.4 | 0.00 | 0.00 | 0.00 | 46 | 1033.3 |
| 20260906165338 | 25 | 134 | 1.6 | 6.4 | 0.00 | 0.00 | 0.00 | 47 | 1033.4 |
| 20260906164854 | 25 | 123 | 1.6 | 6.4 | 0.00 | 0.00 | 0.00 | 45 | 1033.5 |
| 20260906164325 | 25 | 121 | 1.6 | 6.4 | 0.00 | 0.00 | 0.00 | 48 | 1033.5 |
| 20260906163822 | 25 | 121 | 1.6 | 4.8 | 0.00 | 0.00 | 0.00 | 48 | 1033.5 |
| 20260906163333 | 24 | 121 | 0.0 | 4.8 | 0.00 | 0.00 | 0.00 | 51 | 1033.4 |
| 20260906162831 | 24 | 121 | 1.6 | 3.2 | 0.00 | 0.00 | 0.00 | 52 | 1033.6 |
| 20260906162332 | 23 | 125 | 1.6 | 4.8 | 0.00 | 0.00 | 0.00 | 51 | 1033.5 |
| 20260906161848 | 23 | 125 | 0.0 | 4.8 | 0.00 | 0.00 | 0.00 | 53 | 1033.5 |
| 20260906161350 | 23 | 121 | 1.6 | 4.8 | 0.00 | 0.00 | 0.00 | 53 | 1033.5 |
| 20260906160827 | 23 | 120 | 1.6 | 4.8 | 0.00 | 0.00 | 0.00 | 53 | 1033.5 |
| 20260906160329 | 23 | 120 | 1.6 | 6.4 | 0.00 | 0.00 | 0.00 | 54 | 1033.6 |
| 20260906155823 | 23 | 119 | 0.0 | 6.4 | 0.00 | 0.00 | 0.00 | 55 | 1033.5 |
| 20260906155339 | 23 | 119 | 1.6 | 6.4 | 0.00 | 0.00 | 0.00 | 57 | 1033.5 |
| 20260906154830 | 23 | 117 | 1.6 | 6.4 | 0.00 | 0.00 | 0.00 | 60 | 1033.4 |
| 20260906154322 | 22 | 118 | 3.2 | 6.4 | 0.00 | 0.00 | 0.00 | 59 | 1033.5 |
| 20260906153820 | 22 | 116 | 1.6 | 6.4 | 0.00 | 0.00 | 0.00 | 62 | 1033.5 |
| 20260906153330 | 22 | 132 | 1.6 | 4.8 | 0.00 | 0.00 | 0.00 | 64 | 1033.5 |
| 20260906152824 | 21 | 162 | 0.0 | 4.8 | 0.00 | 0.00 | 0.00 | 65 | 1033.5 |
| 20260906152324 | 21 | 162 | 0.0 | 4.8 | 0.00 | 0.00 | 0.00 | 67 | 1033.5 |
| 20260906151820 | 20 | 162 | 0.0 | 4.8 | 0.00 | 0.00 | 0.00 | 69 | 1033.6 |
| 20260906151323 | 20 | 163 | 0.0 | 3.2 | 0.00 | 0.00 | 0.00 | 71 | 1033.7 |
| 20260906150840 | 19 | 163 | 0.0 | 3.2 | 0.00 | 0.00 | 0.00 | 71 | 1033.7 |
| 20260906150321 | 19 | 163 | 0.0 | 4.8 | 0.00 | 0.00 | 0.00 | 72 | 1033.6 |
| 20260906145819 | 18 | 163 | 0.0 | 4.8 | 0.00 | 0.00 | 0.00 | 72 | 1033.7 |
| 20260906145330 | 18 | 163 | 1.6 | 6.4 | 0.00 | 0.00 | 0.00 | 73 | 1033.8 |
| 20260906144848 | 18 | 163 | 0.0 | 1.6 | 0.00 | 0.00 | 0.00 | 73 | 1033.8 |
| 20260906144341 | 18 | 163 | 0.0 | 0.0 | 0.00 | 0.00 | 0.00 | 73 | 1033.8 |
| 20260906143815 | 18 | 163 | 0.0 | 0.0 | 0.00 | 0.00 | 0.00 | 73 | 1033.8 |
| 20260906143328 | 18 | 163 | 0.0 | 0.0 | 0.00 | 0.00 | 0.00 | 73 | 1033.8 |
| 20260906142820 | 18 | 163 | 0.0 | 0.0 | 0.00 | 0.00 | 0.00 | 73 | 1033.8 |
| 20260906142324 | 18 | 163 | 0.0 | 8.0 | 0.00 | 0.00 | 0.00 | 74 | 1033.7 |
| 20260906141838 | 18 | 163 | 1.6 | 8.0 | 0.00 | 0.00 | 0.00 | 75 | 1033.7 |
| 20260906141324 | 18 | 304 | 0.0 | 1.6 | 0.00 | 0.00 | 0.00 | 75 | 1033.7 |
| 20260906140819 | 17 | 305 | 0.0 | 1.6 | 0.00 | 0.00 | 0.00 | 76 | 1033.5 |
| 20260906140322 | 17 | 305 | 0.0 | 3.2 | 0.00 | 0.00 | 0.00 | 77 | 1033.6 |
| 20260906135855 | 17 | 305 | 0.0 | 3.2 | 0.00 | 0.00 | 0.00 | 78 | 1033.6 |
| 20260906135326 | 16 | 304 | 0.0 | 1.6 | 0.00 | 0.00 | 0.00 | 78 | 1033.5 |
| 20260906134846 | 16 | 304 | 0.0 | 1.6 | 0.00 | 0.00 | 0.00 | 79 | 1033.4 |
| 20260906134314 | 16 | 304 | 0.0 | 0.0 | 0.00 | 0.00 | 0.00 | 79 | 1033.5 |
| 20260906133827 | 16 | 304 | 0.0 | 0.0 | 0.00 | 0.00 | 0.00 | 80 | 1033.5 |
| 20260906133314 | 15 | 360 | 0.0 | 0.0 | 0.00 | 0.00 | 0.00 | 79 | 1033.6 |
| 20260906132833 | 15 | 360 | 0.0 | 0.0 | 0.00 | 0.00 | 0.00 | 77 | 1033.6 |
| 20260906132317 | 15 | 360 | 0.0 | 0.0 | 0.00 | 0.00 | 0.00 | 76 | 1033.6 |
| 20260906131830 | 15 | 360 | 0.0 | 0.0 | 0.00 | 0.00 | 0.00 | 75 | 1033.7 |
| 20260906131354 | 15 | 360 | 0.0 | 0.0 | 0.00 | 0.00 | 0.00 | 75 | 1033.6 |
| 20260906130851 | 15 | 360 | 0.0 | 0.0 | 0.00 | 0.00 | 0.00 | 74 | 1033.5 |
| 20260906130332 | 15 | 360 | 0.0 | 0.0 | 0.00 | 0.00 | 0.00 | 73 | 1033.6 |
| 20260906125825 | 15 | 360 | 0.0 | 0.0 | 0.00 | 0.00 | 0.00 | 73 | 1033.6 |
| 20260906125319 | 15 | 360 | 0.0 | 0.0 | 0.00 | 0.00 | 0.00 | 72 | 1033.6 |
| 20260906124815 | 15 | 360 | 0.0 | 0.0 | 0.00 | 0.00 | 0.00 | 72 | 1033.7 |
| 20260906124347 | 15 | 360 | 0.0 | 0.0 | 0.00 | 0.00 | 0.00 | 72 | 1033.6 |
| 20260906123825 | 15 | 360 | 0.0 | 0.0 | 0.00 | 0.00 | 0.00 | 72 | 1033.4 |
| 20260906123320 | 15 | 360 | 0.0 | 0.0 | 0.00 | 0.00 | 0.00 | 72 | 1033.4 |
| 20260906122826 | 15 | 360 | 0.0 | 0.0 | 0.00 | 0.00 | 0.00 | 72 | 1033.4 |
| 20260906122329 | 15 | 360 | 0.0 | 0.0 | 0.00 | 0.00 | 0.00 | 71 | 1033.3 |
| 20260906121820 | 15 | 360 | 0.0 | 0.0 | 0.00 | 0.00 | 0.00 | 71 | 1033.4 |
| 20260906121324 | 15 | 360 | 0.0 | 0.0 | 0.00 | 0.00 | 0.00 | 71 | 1033.5 |
| 20260906120821 | 15 | 360 | 0.0 | 0.0 | 0.00 | 0.00 | 0.00 | 71 | 1033.3 |
| 20260906120321 | 15 | 360 | 0.0 | 0.0 | 0.00 | 0.00 | 0.00 | 71 | 1033.3 |
| 20260906115817 | 15 | 360 | 0.0 | 0.0 | 0.00 | 0.00 | 0.00 | 70 | 1033.1 |
| 20260906115349 | 15 | 360 | 0.0 | 0.0 | 0.00 | 0.00 | 0.00 | 70 | 1033.2 |
| 20260906114825 | 15 | 360 | 0.0 | 0.0 | 0.00 | 0.00 | 0.00 | 70 | 1033.2 |
| 20260906114317 | 15 | 360 | 0.0 | 0.0 | 0.00 | 0.00 | 0.00 | 70 | 1033.2 |
| 20260906113854 | 15 | 360 | 0.0 | 0.0 | 0.00 | 0.00 | 0.00 | 70 | 1033.3 |
| 20260906113326 | 15 | 360 | 0.0 | 0.0 | 0.00 | 0.00 | 0.00 | 70 | 1033.2 |
| 20260906112843 | 15 | 360 | 0.0 | 0.0 | 0.00 | 0.00 | 0.00 | 69 | 1033.2 |
| 20260906112328 | 15 | 360 | 0.0 | 0.0 | 0.00 | 0.00 | 0.00 | 69 | 1033.2 |
| 20260906111824 | 15 | 360 | 0.0 | 0.0 | 0.00 | 0.00 | 0.00 | 68 | 1033.1 |
| 20260906111327 | 16 | 360 | 0.0 | 0.0 | 0.00 | 0.00 | 0.00 | 68 | 1033.0 |
| 20260906110847 | 16 | 360 | 0.0 | 0.0 | 0.00 | 0.00 | 0.00 | 68 | 1033.0 |
| 20260906110326 | 16 | 360 | 0.0 | 0.0 | 0.00 | 0.00 | 0.00 | 68 | 1033.0 |
| 20260906105835 | 16 | 360 | 0.0 | 0.0 | 0.00 | 0.00 | 0.00 | 67 | 1033.1 |
| 20260906105314 | 16 | 360 | 0.0 | 0.0 | 0.00 | 0.00 | 0.00 | 67 | 1033.2 |
| 20260906104850 | 16 | 360 | 0.0 | 0.0 | 0.00 | 0.00 | 0.00 | 67 | 1033.2 |
| 20260906104321 | 16 | 360 | 0.0 | 0.0 | 0.00 | 0.00 | 0.00 | 66 | 1033.3 |
| 20260906103827 | 16 | 360 | 0.0 | 0.0 | 0.00 | 0.00 | 0.00 | 66 | 1033.1 |
| 20260906103315 | 16 | 360 | 0.0 | 0.0 | 0.00 | 0.00 | 0.00 | 65 | 1033.1 |
| 20260906102832 | 16 | 360 | 0.0 | 0.0 | 0.00 | 0.00 | 0.00 | 65 | 1033.1 |
| 20260906102317 | 16 | 360 | 0.0 | 0.0 | 0.00 | 0.00 | 0.00 | 64 | 1033.2 |
| 20260906101815 | 16 | 360 | 0.0 | 0.0 | 0.00 | 0.00 | 0.00 | 64 | 1033.2 |
| 20260906101337 | 16 | 360 | 0.0 | 0.0 | 0.00 | 0.00 | 0.00 | 63 | 1033.3 |
| 20260906100814 | 16 | 360 | 0.0 | 0.0 | 0.00 | 0.00 | 0.00 | 63 | 1033.3 |
| 20260906100320 | 16 | 360 | 0.0 | 0.0 | 0.00 | 0.00 | 0.00 | 63 | 1033.3 |
| 20260906095837 | 16 | 360 | 0.0 | 0.0 | 0.00 | 0.00 | 0.00 | 62 | 1033.2 |
| 20260906095328 | 17 | 360 | 0.0 | 0.0 | 0.00 | 0.00 | 0.00 | 61 | 1033.2 |
| 20260906094842 | 17 | 360 | 0.0 | 0.0 | 0.00 | 0.00 | 0.00 | 61 | 1033.1 |
| 20260906094332 | 17 | 360 | 0.0 | 0.0 | 0.00 | 0.00 | 0.00 | 60 | 1033.1 |
| 20260906093829 | 17 | 360 | 0.0 | 0.0 | 0.00 | 0.00 | 0.00 | 60 | 1033.0 |
| 20260906093325 | 17 | 360 | 0.0 | 0.0 | 0.00 | 0.00 | 0.00 | 59 | 1033.0 |
| 20260906092837 | 17 | 360 | 0.0 | 0.0 | 0.00 | 0.00 | 0.00 | 58 | 1033.1 |
| 20260906092319 | 17 | 360 | 0.0 | 0.0 | 0.00 | 0.00 | 0.00 | 57 | 1032.9 |
| 20260906091815 | 17 | 360 | 0.0 | 0.0 | 0.00 | 0.00 | 0.00 | 57 | 1032.9 |
| 20260906091340 | 17 | 360 | 0.0 | 0.0 | 0.00 | 0.00 | 0.00 | 56 | 1032.9 |
| 20260906090816 | 17 | 304 | 0.0 | 0.0 | 0.00 | 0.00 | 0.00 | 55 | 1032.7 |
| 20260906090318 | 17 | 304 | 0.0 | 0.0 | 0.00 | 0.00 | 0.00 | 56 | 1032.5 |
| 20260906085816 | 18 | 304 | 0.0 | 0.0 | 0.00 | 0.00 | 0.00 | 55 | 1032.6 |
| 20260906085349 | 18 | 304 | 0.0 | 0.0 | 0.00 | 0.00 | 0.00 | 54 | 1032.5 |
| 20260906084825 | 18 | 304 | 0.0 | 0.0 | 0.00 | 0.00 | 0.00 | 54 | 1032.5 |
| 20260906084322 | 18 | 304 | 0.0 | 0.0 | 0.00 | 0.00 | 0.00 | 53 | 1032.5 |
| 20260906083821 | 18 | 304 | 0.0 | 0.0 | 0.00 | 0.00 | 0.00 | 53 | 1032.4 |
| 20260906083332 | 18 | 304 | 0.0 | 0.0 | 0.00 | 0.00 | 0.00 | 53 | 1032.2 |
| 20260906082830 | 18 | 304 | 0.0 | 0.0 | 0.00 | 0.00 | 0.00 | 53 | 1032.2 |
| 20260906082313 | 18 | 304 | 0.0 | 0.0 | 0.00 | 0.00 | 0.00 | 52 | 1032.2 |
| 20260906081830 | 18 | 304 | 0.0 | 0.0 | 0.00 | 0.00 | 0.00 | 52 | 1032.2 |
| 20260906081333 | 18 | 304 | 0.0 | 0.0 | 0.00 | 0.00 | 0.00 | 52 | 1032.0 |
| 20260906080851 | 18 | 360 | 0.0 | 0.0 | 0.00 | 0.00 | 0.00 | 52 | 1032.1 |
| 20260906080324 | 19 | 304 | 0.0 | 0.0 | 0.00 | 0.00 | 0.00 | 52 | 1032.3 |
| 20260906075822 | 19 | 360 | 0.0 | 0.0 | 0.00 | 0.00 | 0.00 | 51 | 1032.3 |
| 20260906075315 | 19 | 360 | 0.0 | 0.0 | 0.00 | 0.00 | 0.00 | 50 | 1032.4 |
| 20260906074832 | 19 | 302 | 0.0 | 0.0 | 0.00 | 0.00 | 0.00 | 50 | 1032.4 |
| 20260906074324 | 20 | 303 | 0.0 | 0.0 | 0.00 | 0.00 | 0.00 | 50 | 1032.4 |
| 20260906073820 | 20 | 304 | 0.0 | 0.0 | 0.00 | 0.00 | 0.00 | 49 | 1032.4 |
| 20260906073317 | 20 | 304 | 0.0 | 0.0 | 0.00 | 0.00 | 0.00 | 48 | 1032.5 |
| 20260906072854 | 20 | 304 | 0.0 | 0.0 | 0.00 | 0.00 | 0.00 | 48 | 1032.4 |
| 20260906072315 | 20 | 304 | 0.0 | 0.0 | 0.00 | 0.00 | 0.00 | 47 | 1032.5 |
| 20260906071833 | 21 | 304 | 0.0 | 0.0 | 0.00 | 0.00 | 0.00 | 47 | 1032.4 |
| 20260906071313 | 21 | 304 | 0.0 | 0.0 | 0.00 | 0.00 | 0.00 | 46 | 1032.5 |
| 20260906070850 | 21 | 304 | 0.0 | 0.0 | 0.00 | 0.00 | 0.00 | 45 | 1032.4 |
| 20260906070331 | 21 | 304 | 0.0 | 0.0 | 0.00 | 0.00 | 0.00 | 45 | 1032.3 |
| 20260906065828 | 21 | 304 | 0.0 | 0.0 | 0.00 | 0.00 | 0.00 | 44 | 1032.3 |
| 20260906065323 | 22 | 304 | 0.0 | 0.0 | 0.00 | 0.00 | 0.00 | 43 | 1032.3 |
| 20260906064850 | 22 | 304 | 0.0 | 0.0 | 0.00 | 0.00 | 0.00 | 43 | 1032.4 |
| 20260906064321 | 22 | 304 | 0.0 | 0.0 | 0.00 | 0.00 | 0.00 | 42 | 1032.3 |
| 20260906063838 | 22 | 304 | 0.0 | 0.0 | 0.00 | 0.00 | 0.00 | 41 | 1032.3 |
| 20260906063328 | 22 | 304 | 0.0 | 0.0 | 0.00 | 0.00 | 0.00 | 41 | 1032.3 |
| 20260906062844 | 23 | 304 | 0.0 | 0.0 | 0.00 | 0.00 | 0.00 | 40 | 1032.3 |
| 20260906062327 | 23 | 304 | 0.0 | 0.0 | 0.00 | 0.00 | 0.00 | 40 | 1032.5 |
| 20260906061833 | 23 | 304 | 0.0 | 0.0 | 0.00 | 0.00 | 0.00 | 40 | 1032.4 |
| 20260906061316 | 23 | 304 | 0.0 | 0.0 | 0.00 | 0.00 | 0.00 | 38 | 1032.2 |
| 20260906060814 | 23 | 304 | 0.0 | 3.2 | 0.00 | 0.00 | 0.00 | 38 | 1032.1 |
| 20260906060320 | 23 | 304 | 1.6 | 3.2 | 0.00 | 0.00 | 0.00 | 38 | 1032.1 |
| 20260906055835 | 23 | 304 | 0.0 | 1.6 | 0.00 | 0.00 | 0.00 | 39 | 1032.3 |
| 20260906055326 | 23 | 304 | 0.0 | 0.0 | 0.00 | 0.00 | 0.00 | 39 | 1032.4 |
| 20260906054844 | 23 | 304 | 0.0 | 0.0 | 0.00 | 0.00 | 0.00 | 38 | 1032.6 |
| 20260906054314 | 24 | 304 | 0.0 | 0.0 | 0.00 | 0.00 | 0.00 | 38 | 1032.6 |
| 20260906053830 | 24 | 304 | 0.0 | 0.0 | 0.00 | 0.00 | 0.00 | 37 | 1032.9 |
| 20260906053323 | 24 | 304 | 0.0 | 1.6 | 0.00 | 0.00 | 0.00 | 37 | 1033.0 |
| 20260906052824 | 24 | 304 | 0.0 | 1.6 | 0.00 | 0.00 | 0.00 | 36 | 1033.1 |
| 20260906052327 | 25 | 304 | 0.0 | 1.6 | 0.00 | 0.00 | 0.00 | 36 | 1033.1 |
| 20260906051823 | 25 | 304 | 0.0 | 3.2 | 0.00 | 0.00 | 0.00 | 35 | 1033.1 |
| 20260906051326 | 25 | 304 | 0.0 | 3.2 | 0.00 | 0.00 | 0.00 | 35 | 1033.1 |
| 20260906050823 | 25 | 304 | 0.0 | 1.6 | 0.00 | 0.00 | 0.00 | 34 | 1032.8 |
| 20260906050325 | 25 | 304 | 0.0 | 3.2 | 0.00 | 0.00 | 0.00 | 34 | 1032.5 |
| 20260906045823 | 26 | 304 | 0.0 | 3.2 | 0.00 | 0.00 | 0.00 | 33 | 1032.5 |
| 20260906045320 | 26 | 304 | 0.0 | 3.2 | 0.00 | 0.00 | 0.00 | 33 | 1032.2 |
| 20260906044839 | 26 | 306 | 0.0 | 6.4 | 0.00 | 0.00 | 0.00 | 32 | 1032.1 |
| 20260906044330 | 26 | 307 | 0.0 | 9.7 | 0.00 | 0.00 | 0.00 | 32 | 1032.1 |
| 20260906043846 | 26 | 311 | 3.2 | 9.7 | 0.00 | 0.00 | 0.00 | 32 | 1032.0 |
| 20260906043319 | 26 | 196 | 1.6 | 4.8 | 0.00 | 0.00 | 0.00 | 32 | 1032.1 |
| 20260906042817 | 26 | 196 | 0.0 | 4.8 | 0.00 | 0.00 | 0.00 | 32 | 1031.9 |
| 20260906042320 | 26 | 196 | 1.6 | 8.0 | 0.00 | 0.00 | 0.00 | 31 | 1031.8 |
| 20260906041817 | 26 | 196 | 4.8 | 8.0 | 0.00 | 0.00 | 0.00 | 31 | 1031.8 |
| 20260906041319 | 26 | 266 | 3.2 | 8.0 | 0.00 | 0.00 | 0.00 | 31 | 1031.8 |
| 20260906040830 | 25 | 240 | 3.2 | 8.0 | 0.00 | 0.00 | 0.00 | 31 | 1031.9 |
| 20260906040329 | 25 | 331 | 1.6 | 8.0 | 0.00 | 0.00 | 0.00 | 32 | 1032.1 |
| 20260906035827 | 25 | 213 | 1.6 | 3.2 | 0.00 | 0.00 | 0.00 | 33 | 1032.0 |
| 20260906035320 | 25 | 213 | 0.0 | 1.6 | 0.00 | 0.00 | 0.00 | 33 | 1031.8 |
| 20260906034814 | 25 | 213 | 0.0 | 1.6 | 0.00 | 0.00 | 0.00 | 33 | 1031.8 |
| 20260906034331 | 25 | 214 | 0.0 | 1.6 | 0.00 | 0.00 | 0.00 | 33 | 1031.5 |
| 20260906033823 | 26 | 214 | 0.0 | 3.2 | 0.00 | 0.00 | 0.00 | 32 | 1031.5 |
| 20260906033316 | 26 | 214 | 0.0 | 3.2 | 0.00 | 0.00 | 0.00 | 31 | 1031.3 |
| 20260906032828 | 26 | 213 | 0.0 | 3.2 | 0.00 | 0.00 | 0.00 | 31 | 1031.2 |
| 20260906032319 | 26 | 231 | 0.0 | 11.3 | 0.00 | 0.00 | 0.00 | 30 | 1031.0 |
| 20260906031816 | 26 | 248 | 1.6 | 12.9 | 0.00 | 0.00 | 0.00 | 29 | 1030.9 |
| 20260906031340 | 26 | 190 | 6.4 | 14.5 | 0.00 | 0.00 | 0.00 | 30 | 1030.9 |
| 20260906030837 | 26 | 252 | 6.4 | 14.5 | 0.00 | 0.00 | 0.00 | 29 | 1030.9 |
| 20260906030319 | 27 | 212 | 4.8 | 12.9 | 0.00 | 0.00 | 0.00 | 29 | 1030.7 |
| 20260906025832 | 27 | 180 | 4.8 | 12.9 | 0.00 | 0.00 | 0.00 | 28 | 1030.6 |
| 20260906025325 | 27 | 214 | 4.8 | 11.3 | 0.00 | 0.00 | 0.00 | 28 | 1030.4 |
| 20260906024823 | 27 | 217 | 3.2 | 12.9 | 0.00 | 0.00 | 0.00 | 28 | 1030.4 |
| 20260906024314 | 27 | 148 | 6.4 | 11.3 | 0.00 | 0.00 | 0.00 | 28 | 1030.3 |
| 20260906023830 | 27 | 202 | 3.2 | 9.7 | 0.00 | 0.00 | 0.00 | 28 | 1030.4 |
| 20260906023343 | 27 | 262 | 4.8 | 14.5 | 0.00 | 0.00 | 0.00 | 28 | 1030.4 |
| 20260906022824 | 28 | 238 | 6.4 | 14.5 | 0.00 | 0.00 | 0.00 | 27 | 1030.4 |
| 20260906022327 | 28 | 233 | 3.2 | 14.5 | 0.00 | 0.00 | 0.00 | 27 | 1030.4 |
| 20260906021824 | 28 | 182 | 3.2 | 8.0 | 0.00 | 0.00 | 0.00 | 27 | 1030.2 |
| 20260906021326 | 28 | 263 | 3.2 | 9.7 | 0.00 | 0.00 | 0.00 | 27 | 1030.1 |
| 20260906020825 | 28 | 311 | 3.2 | 12.9 | 0.00 | 0.00 | 0.00 | 27 | 1030.1 |
| 20260906020324 | 28 | 266 | 6.4 | 12.9 | 0.00 | 0.00 | 0.00 | 27 | 1029.9 |
| 20260906015823 | 27 | 293 | 6.4 | 22.5 | 0.00 | 0.00 | 0.00 | 27 | 1030.0 |
| 20260906015315 | 27 | 355 | 11.3 | 22.5 | 0.00 | 0.00 | 0.00 | 28 | 1030.2 |
| 20260906014831 | 28 | 241 | 6.4 | 14.5 | 0.00 | 0.00 | 0.00 | 27 | 1030.4 |
| 20260906014323 | 28 | 238 | 8.0 | 12.9 | 0.00 | 0.00 | 0.00 | 27 | 1030.5 |
| 20260906013822 | 28 | 270 | 4.8 | 14.5 | 0.00 | 0.00 | 0.00 | 27 | 1030.3 |
| 20260906013332 | 28 | 268 | 6.4 | 12.9 | 0.00 | 0.00 | 0.00 | 27 | 1030.3 |
| 20260906012829 | 28 | 222 | 6.4 | 12.9 | 0.00 | 0.00 | 0.00 | 27 | 1030.2 |
| 20260906012336 | 28 | 320 | 3.2 | 11.3 | 0.00 | 0.00 | 0.00 | 27 | 1030.2 |
| 20260906011831 | 28 | 346 | 4.8 | 11.3 | 0.00 | 0.00 | 0.00 | 27 | 1030.2 |
| 20260906011316 | 28 | 297 | 1.6 | 14.5 | 0.00 | 0.00 | 0.00 | 27 | 1030.2 |
| 20260906010814 | 28 | 290 | 4.8 | 14.5 | 0.00 | 0.00 | 0.00 | 27 | 1030.2 |
| 20260906010316 | 28 | 273 | 3.2 | 14.5 | 0.00 | 0.00 | 0.00 | 27 | 1030.3 |
| 20260906005853 | 28 | 324 | 4.8 | 14.5 | 0.00 | 0.00 | 0.00 | 26 | 1030.3 |
| 20260906005325 | 28 | 306 | 1.6 | 12.9 | 0.00 | 0.00 | 0.00 | 26 | 1030.3 |
| 20260906004844 | 28 | 286 | 4.8 | 16.1 | 0.00 | 0.00 | 0.00 | 26 | 1030.4 |
| 20260906004314 | 28 | 296 | 4.8 | 16.1 | 0.00 | 0.00 | 0.00 | 26 | 1030.4 |
| 20260906003829 | 28 | 303 | 8.0 | 16.1 | 0.00 | 0.00 | 0.00 | 26 | 1030.4 |
| 20260906003342 | 28 | 300 | 4.8 | 16.1 | 0.00 | 0.00 | 0.00 | 26 | 1030.4 |
| 20260906002819 | 28 | 315 | 6.4 | 16.1 | 0.00 | 0.00 | 0.00 | 26 | 1030.4 |
| 20260906002322 | 29 | 290 | 6.4 | 17.7 | 0.00 | 0.00 | 0.00 | 26 | 1030.5 |
| 20260906001840 | 29 | 285 | 6.4 | 19.3 | 0.00 | 0.00 | 0.00 | 26 | 1030.5 |
| 20260906001320 | 30 | 304 | 6.4 | 19.3 | 0.00 | 0.00 | 0.00 | 25 | 1030.6 |
| 20260906000816 | 30 | 313 | 4.8 | 17.7 | 0.00 | 0.00 | 0.00 | 25 | 1030.4 |
| 20260906000340 | 31 | 313 | 4.8 | 12.9 | 0.00 | 0.00 | 0.00 | 26 | 1030.4 |
| 20260905235820 | 31 | 237 | 3.2 | 8.0 | 0.00 | 0.00 | 0.00 | 26 | 1030.3 |
| 20260905235353 | 31 | 287 | 1.6 | 6.4 | 0.00 | 0.00 | 0.00 | 22 | 1030.2 |
| 20260905234825 | 31 | 280 | 3.2 | 4.8 | 0.00 | 0.00 | 0.00 | 22 | 1030.1 |
| 20260905234318 | 30 | 285 | 1.6 | 4.8 | 0.00 | 0.00 | 0.00 | 22 | 1030.3 |
| 20260905233815 | 30 | 286 | 1.6 | 4.8 | 0.00 | 0.00 | 0.00 | 22 | 1030.2 |
| 20260905233327 | 30 | 286 | 1.6 | 3.2 | 0.00 | 0.00 | 0.00 | 23 | 1030.2 |
| 20260905232824 | 30 | 286 | 0.0 | 3.2 | 0.00 | 0.00 | 0.00 | 23 | 1030.1 |
| 20260905232327 | 31 | 286 | 0.0 | 3.2 | 0.00 | 0.00 | 0.00 | 23 | 1030.1 |
| 20260905231825 | 31 | 286 | 0.0 | 1.6 | 0.00 | 0.00 | 0.00 | 23 | 1030.0 |
| 20260905231348 | 31 | 286 | 0.0 | 1.6 | 0.00 | 0.00 | 0.00 | 22 | 1029.9 |
| 20260905230819 | 31 | 286 | 0.0 | 1.6 | 0.00 | 0.00 | 0.00 | 22 | 1030.0 |
| 20260905230320 | 31 | 286 | 0.0 | 0.0 | 0.00 | 0.00 | 0.00 | 22 | 1029.9 |
| 20260905225818 | 31 | 286 | 0.0 | 0.0 | 0.00 | 0.00 | 0.00 | 23 | 1029.9 |
| 20260905225351 | 31 | 286 | 0.0 | 0.0 | 0.00 | 0.00 | 0.00 | 23 | 1029.9 |
| 20260905224824 | 31 | 286 | 0.0 | 1.6 | 0.00 | 0.00 | 0.00 | 22 | 1029.8 |
| 20260905224318 | 32 | 286 | 0.0 | 1.6 | 0.00 | 0.00 | 0.00 | 20 | 1029.7 |